Regional Weather Roundup
Issued by NWS Green Bay, WI

Home | Current Version | Previous Version | Graphics & Text | Print | Product List | Glossary Off
Versions: 1 2 3 4 5 6 7 8 9 10 11 12 13 14 15 16 17 18 19 20 21 22 23 24 25 26 27 28 29 30 31 32 33 34 35 36 37 38 39 40 41 42 43 44 45 46 47 48 49 50

000
ASUS43 KGRB 290800
RWRGRB

NORTH-CENTRAL AND NORTHEAST WISCONSIN REGIONAL WEATHER ROUNDUP
NATIONAL WEATHER SERVICE GREEN BAY WI
300 AM CDT SAT AUG 29 2015

WIZ005-009-010>012-018-019-290900-
NORTH CENTRAL WISCONSIN

CITY           SKY/WX    TMP DP  RH WIND       PRES   REMARKS
IRONWOOD       PTCLDY    61  54  77 CALM      30.06R
MANITOWISH WTR NOT AVBL
ARBOR VITAE    NOT AVBL
EAGLE RIVER    NOT AVBL
LAND O LAKES   NOT AVBL
RHINELANDER    CLEAR     54  53  97 CALM      30.09S
PHILLIPS       CLEAR     54  53  97 CALM      30.07R
ANTIGO         NOT AVBL
TOMAHAWK       NOT AVBL
MERRILL        PTCLDY    55  55  97 SE6       30.07F
$$

WIZ013-073-290900-
NORTHEAST WISCONSIN

CITY           SKY/WX    TMP DP  RH WIND       PRES   REMARKS
IRON MOUNTAIN  CLOUDY    61  57  87 S5        30.05F
MARINETTE      CLOUDY    61  54  77 SW7       30.07F
$$

WIZ017-030-035>037-045-290900-
CENTRAL WISCONSIN

CITY           SKY/WX    TMP DP  RH WIND       PRES   REMARKS
MEDFORD        NOT AVBL
WAUSAU         MOCLDY    57  53  86 SE6       30.06F
MOSINEE        NOT AVBL
MARSHFIELD     CLOUDY    57  53  86 E7        30.06F
WISC RAPIDS    LGT RAIN  58  56  93 E5        30.07F FOG
STEVENS POINT  NOT AVBL
WAUPACA        NOT AVBL
SHAWANO        NOT AVBL
CLINTONVILLE   DRIZZLE   55  55 100 CALM      30.09S
WAUTOMA        LGT RAIN  57  57 100 CALM      30.07F FOG
$$

WIZ038-039-048-051-290900-
FOX VALLEY

CITY           SKY/WX    TMP DP  RH WIND       PRES   REMARKS
NWS GREEN BAY  LGT RAIN  58  56  93 E3        30.10F FOG
APPLETON       NOT AVBL
OSHKOSH        LGT RAIN  58  56  93 E8        30.07F FOG
FOND DU LAC    LGT RAIN  58  57  97 E7        30.07F FOG
$$

WIZ022-050-052-290900-
EAST CENTRAL WISCONSIN

CITY           SKY/WX    TMP DP  RH WIND       PRES   REMARKS
EPHRAIM        PTSUNNY   59  54  84 SW7       30.08F
STURGEON BAY   CLOUDY    57  54  88 S3        30.13F
MANITOWOC      NOT AVBL
SHEBOYGAN      HVY RAIN  57  56  96 NE5       30.09F FOG
$$

LMZ563-521-522-541>543-290900-
LAKESHORE

STATION/POSITION TIME  TEMP    WIND        PRES    VSBY  WAVE
                       AIR SEA DIR/SP/G                  HT/PER
                 (UTC) (F)     (DEG/KT/KT) (MB)    (MI)  (FT/S)
SHEBOYGAN LKSHOR 0700   56     350/  9/ 10 1019.5S
ALGOMA MARINA    0714             CALM       N/A
NORTHPORT PIER   0700   62     240/  8/ 15 1019.3R
N MID LAKE BUOY  0650   63 64  240/ 16/ 19 1018.8R         3/ 5
S GREEN BAY BUOY 0700   61 62  220/ 10/ 12 1021.1
SISTER BAY LKSHO 0719   62     270/ 12/ 14   N/A
CHAMBERS ISLAND  0700   61     200/  5/  8 1019.3F
$$



USA.gov is the U.S. government's official web portal to all federal, state and local government web resources and services.